FW4820 Weather Reports


time (UTC)temp
C
wind
direction
speed
KPH
gust
KPH
rain 1hr
cm
rain 24hr
cm
rain mn
cm
humidity
%
barometer
mb
20260906182017 36 248 1.6 6.4 0.00 0.00 0.00 51 1016.0
20260906181018 36 0.0 3.2 0.00 0.00 0.00 53 1016.3
20260906180037 35 248 1.6 6.4 0.00 0.00 0.00 52 1016.4
20260906175037 36 113 1.6 6.4 0.00 0.00 0.00 53 1016.9
20260906174017 35 68 3.2 6.4 0.00 0.00 0.00 53 1016.9
20260906173017 35 225 1.6 6.4 0.00 0.00 0.00 56 1017.1
20260906172017 34 90 1.6 4.8 0.00 0.00 0.00 56 1017.2
20260906171017 33 0.0 3.2 0.00 0.00 0.00 61 1017.2
20260906170017 33 90 1.6 8.0 0.00 0.00 0.00 60 1017.2
20260906165017 33 68 1.6 4.8 0.00 0.00 0.00 63 1017.3
20260906164016 32 0.0 1.6 0.00 0.00 0.00 63 1017.3
20260906163017 32 68 1.6 3.2 0.00 0.00 0.00 63 1017.4
20260906162017 32 68 4.8 8.0 0.00 0.00 0.00 62 1017.4
20260906161037 33 68 1.6 4.8 0.00 0.00 0.00 61 1017.4
20260906160017 33 0.0 1.6 0.00 0.00 0.00 60 1017.5
20260906155017 33 0.0 0.0 0.00 0.00 0.00 60 1017.3
20260906154017 33 0.0 1.6 0.00 0.00 0.00 59 1017.0
20260906153016 33 0.0 3.2 0.00 0.00 0.00 60 1016.9
20260906152117 32 45 1.6 4.8 0.00 0.00 0.00 61 1016.8
20260906151017 32 68 1.6 8.0 0.00 0.00 0.00 62 1016.7
20260906150017 31 68 1.6 6.4 0.00 0.00 0.00 65 1016.5
20260906145016 31 68 4.8 9.7 0.00 0.00 0.00 69 1016.5
20260906144117 30 68 4.8 8.0 0.00 0.00 0.00 69 1016.5
20260906143037 30 68 4.8 9.7 0.00 0.00 0.00 72 1016.6
20260906142016 30 68 6.4 9.7 0.00 0.00 0.00 71 1016.6
20260906141017 30 0.0 0.0 0.00 0.00 0.00 72 1016.6
20260906140017 28 68 1.6 6.4 0.00 0.00 0.00 74 1016.6
20260906135017 28 68 3.2 4.8 0.00 0.00 0.00 76 1016.5
20260906134017 27 0.0 3.2 0.00 0.00 0.00 77 1016.4
20260906133017 27 0.0 1.6 0.00 0.00 0.00 78 1016.4
20260906132516 27 0.0 0.0 0.00 0.00 0.00 78 1016.3
20260906131516 27 0.0 1.6 0.00 0.00 0.00 80 1016.3
20260906130516 26 0.0 0.0 0.00 0.00 0.00 83 1016.3
20260906125557 25 0.0 0.0 0.00 0.00 0.00 87 1016.2
20260906124516 24 0.0 0.0 0.00 0.00 0.00 90 1015.9
20260906123516 23 0.0 0.0 0.00 0.00 0.00 92 1015.7
20260906122516 22 0.0 0.0 0.00 0.00 0.00 93 1015.7
20260906121516 22 0.0 0.0 0.00 0.00 0.00 92 1015.6
20260906120516 21 0.0 0.0 0.00 0.00 0.00 93 1015.5
20260906115516 21 0.0 0.0 0.00 0.00 0.00 92 1015.3
20260906114516 22 0.0 0.0 0.00 0.00 0.00 92 1015.5
20260906113516 22 0.0 0.0 0.00 0.00 0.00 92 1015.5
20260906112517 22 0.0 0.0 0.00 0.00 0.00 91 1015.4
20260906111516 22 0.0 0.0 0.00 0.00 0.00 91 1015.4
20260906110517 22 0.0 0.0 0.00 0.00 0.00 91 1015.5
20260906105516 22 0.0 0.0 0.00 0.00 0.00 91 1015.4
20260906104516 22 0.0 0.0 0.00 0.00 0.00 90 1015.4
20260906103516 22 0.0 1.6 0.00 0.00 0.00 90 1015.3
20260906102516 22 0.0 0.0 0.00 0.00 0.00 90 1015.4
20260906101516 22 0.0 0.0 0.00 0.00 0.00 89 1015.5
20260906100516 22 0.0 0.0 0.00 0.00 0.00 89 1015.5
20260906095516 23 0.0 0.0 0.00 0.00 0.00 89 1015.5
20260906094536 22 0.0 0.0 0.00 0.00 0.00 87 1015.4
20260906093516 23 0.0 0.0 0.00 0.00 0.00 87 1015.5
20260906092536 23 0.0 0.0 0.00 0.00 0.00 86 1015.3
20260906091516 23 0.0 0.0 0.00 0.00 0.00 86 1015.3
20260906090516 23 0.0 1.6 0.00 0.00 0.00 87 1015.1
20260906085516 23 0.0 0.0 0.00 0.00 0.00 85 1015.1
20260906084516 24 0.0 0.0 0.00 0.00 0.00 84 1015.2
20260906083516 24 0.0 0.0 0.00 0.00 0.00 83 1015.1
20260906082516 25 0.0 0.0 0.00 0.00 0.00 82 1015.2
20260906081516 25 0.0 0.0 0.00 0.00 0.00 81 1015.1
20260906080516 25 0.0 0.0 0.00 0.00 0.00 80 1015.1
20260906075516 25 0.0 0.0 0.00 0.00 0.00 78 1014.9
20260906074516 26 0.0 0.0 0.00 0.00 0.00 76 1015.1
20260906073516 26 0.0 0.0 0.00 0.00 0.00 75 1015.1
20260906072516 27 0.0 1.6 0.00 0.00 0.00 75 1015.1
20260906071536 27 0.0 1.6 0.00 0.00 0.00 75 1015.1
20260906070516 27 0.0 1.6 0.00 0.00 0.00 75 1015.1
20260906065518 27 0.0 1.6 0.00 0.00 0.00 75 1015.3
20260906064516 27 0.0 1.6 0.00 0.00 0.00 75 1015.3
20260906063536 27 0.0 0.0 0.00 0.00 0.00 75 1015.5
20260906062516 27 0.0 6.4 0.00 0.00 0.00 75 1015.6
20260906061516 27 0.0 1.6 0.00 0.00 0.00 74 1015.5
20260906060516 27 0.0 1.6 0.00 0.00 0.00 74 1015.5
20260906055556 28 0.0 4.8 0.00 0.00 0.00 73 1015.6
20260906054516 28 0.0 1.6 0.00 0.00 0.00 73 1015.6
20260906053536 28 0.0 1.6 0.00 0.00 0.00 73 1015.7
20260906052516 28 0.0 1.6 0.00 0.00 0.00 73 1015.6
20260906051516 28 0.0 3.2 0.00 0.00 0.00 74 1015.6
20260906050516 27 0.0 3.2 0.00 0.00 0.00 74 1015.6
20260906045515 27 0.0 1.6 0.00 0.00 0.00 74 1015.6
20260906044515 27 0.0 1.6 0.00 0.00 0.00 74 1015.6
20260906043535 28 0.0 0.0 0.00 0.00 0.00 74 1015.6
20260906042515 28 0.0 1.6 0.00 0.00 0.00 73 1015.6
20260906041515 28 0.0 1.6 0.00 0.00 0.00 73 1015.6
20260906040515 28 0.0 3.2 0.00 0.00 0.00 73 1015.4
20260906035515 28 0.0 1.6 0.00 0.00 0.00 73 1015.3
20260906034535 27 90 1.6 6.4 0.00 0.00 0.00 75 1015.2
20260906033515 27 0.0 3.2 0.00 0.00 0.00 75 1015.0
20260906032515 26 0.0 0.0 0.00 0.00 0.00 77 1014.8
20260906031515 26 0.0 0.0 0.00 0.00 0.00 77 1014.8
20260906030516 26 0.0 0.0 0.00 0.00 0.00 78 1014.7
20260906025515 26 0.0 0.0 0.00 0.00 0.00 78 1014.4
20260906024515 26 0.0 0.0 0.00 0.00 0.00 77 1014.3
20260906023515 26 0.0 0.0 0.00 0.00 0.00 78 1014.1
20260906022535 26 0.0 0.0 0.00 0.00 0.00 79 1013.8
20260906021515 26 0.0 0.0 0.00 0.00 0.00 80 1013.7
20260906020535 26 0.0 0.0 0.00 0.00 0.00 79 1013.6
20260906015517 26 0.0 0.0 0.00 0.00 0.00 76 1013.5
20260906014517 27 0.0 0.0 0.00 0.00 0.00 75 1013.3
20260906013517 27 0.0 0.0 0.00 0.00 0.00 75 1013.1
20260906012637 27 0.0 0.0 0.00 0.00 0.00 73 1013.0
20260906011517 28 0.0 0.0 0.00 0.00 0.00 70 1012.9
20260906010517 28 0.0 0.0 0.00 0.00 0.00 69 1012.7
20260906005517 29 0.0 0.0 0.00 0.00 0.00 66 1012.6
20260906004517 30 0.0 0.0 0.00 0.00 0.00 64 1012.6
20260906003515 31 0.0 0.0 0.00 0.00 0.00 63 1012.6
20260906002517 32 0.0 0.0 0.00 0.00 0.00 61 1012.7
20260906001537 32 0.0 0.0 0.00 0.00 0.00 59 1012.7
20260906000517 33 0.0 0.0 0.00 0.00 0.00 57 1012.8
20260905235517 35 0.0 0.0 0.00 0.00 0.00 56 1012.9
20260905234517 35 0.0 0.0 0.00 0.00 0.00 56 1013.0
20260905233517 36 0.0 0.0 0.00 0.00 0.00 53 1013.1
20260905232517 36 0.0 0.0 0.00 0.00 0.00 54 1013.1
20260905231517 37 0.0 0.0 0.00 0.00 0.00 47 1013.0
20260905230517 37 0.0 1.6 0.00 0.00 0.00 46 1012.9
20260905225537 36 0.0 3.2 0.00 0.00 0.00 49 1013.0
20260905224517 36 0.0 0.0 0.00 0.00 0.00 48 1012.8
20260905223517 36 0.0 1.6 0.00 0.00 0.00 50 1013.0
20260905222517 36 0.0 1.6 0.00 0.00 0.00 47 1013.2
20260905221557 37 0.0 3.2 0.00 0.00 0.00 43 1013.4
20260905220516 37 0.0 4.8 0.00 0.00 0.00 46 1013.3
20260905215517 37 0.0 0.0 0.00 0.00 0.00 45 1013.4
20260905214517 38 248 4.8 9.7 0.00 0.00 0.00 42 1013.3
20260905213517 38 113 1.6 6.4 0.00 0.00 0.00 43 1013.3
20260905212517 37 113 1.6 6.4 0.00 0.00 0.00 45 1013.4
20260905211517 37 68 3.2 8.0 0.00 0.00 0.00 44 1013.7
20260905210516 38 0.0 3.2 0.00 0.00 0.00 43 1013.8
20260905205516 37 113 1.6 4.8 0.00 0.00 0.00 46 1013.8
20260905204537 37 68 1.6 9.7 0.00 0.00 0.00 43 1013.9
20260905203517 37 248 3.2 6.4 0.00 0.00 0.00 45 1014.0
20260905202516 38 113 3.2 9.7 0.00 0.00 0.00 44 1014.3
20260905201537 37 45 1.6 8.0 0.00 0.00 0.00 45 1014.2
20260905200517 38 113 1.6 4.8 0.00 0.00 0.00 42 1014.6
20260905195516 38 225 1.6 6.4 0.00 0.00 0.00 47 1014.7
20260905194516 38 113 1.6 8.0 0.00 0.00 0.00 47 1014.8
20260905193517 38 203 1.6 4.8 0.00 0.00 0.00 44 1014.7
20260905192517 37 270 4.8 12.9 0.00 0.00 0.00 48 1015.0
20260905191516 37 225 3.2 9.7 0.00 0.00 0.00 47 1015.0
20260905190517 37 68 3.2 12.9 0.00 0.00 0.00 45 1015.1
20260905185537 37 248 4.8 14.5 0.00 0.00 0.00 46 1015.2
20260905184517 37 225 3.2 8.0 0.00 0.00 0.00 45 1015.5
20260905183516 37 158 3.2 8.0 0.00 0.00 0.00 44 1015.4